Location: Newark
(41.0400°S, 62.7845°W)
Time: 03:16:25
(UTC+00:00)

Vanguard 2 Rocket - Pass Details

Date: 30 November 2021
Orbit: 554 x 3325 km, 32.9° (Epoch: 21 January)

Event Time Altitude Azimuth Distance (km) Brightness Sun altitude
Rises 07:37:27 0° 338° (NNW) 7,298 - -9.5°
Exits shadow 07:37:53 - 339° (NNW) 7,224 10.9 -9.4°
Reaches altitude 10° 07:44:15 10° 350° (N) 6,171 10.7 -8.5°
Maximum altitude 07:56:58 23° 33° (NNE) 4,591 10.4 -6.6°
Drops below altitude 10° 08:06:55 10° 77° (ENE) 4,774 11.2 -5.1°
Sets 08:11:09 0° 90° (E) 5,349 11.9 -4.4°
